Погода в Богородском

Россия / Республика Татарстан     55°44′27″N   49°23′01″E
В апреле 2022 года жителям России запретили посещать сайт meteo.paraplan.net по решению Генеральной прокуратуры. Аудитория сайта уменьшилась в 10 раз. Владельцы сайта не видят смысла в поддержке погодного сервера в таких условиях. Сайт будет закрыт в октябре.
темп.,
°C
ветер,
м/с
пор.,
м/с
влажн.,
%
обл.,
%
осадки,
мм/ч
давл.,
гПа
погр.,
м
29 сентября, чт
чт2900:00+4вюв91795100 1.8 1012490
03:00+5вюв81596100 2.8 1011477
06:00+7вюв71397100 0.9 1010463
09:00+8вюв61295100 1.4 1010510
12:00+9вюв61197100 3.7 1011457
15:00+9вюв51097100 3.8 1012397
18:00+8вюв4896100 0.1 1014366
21:00+8вюв4795100 0.3 1016291
30 сентября, пт
пт3000:00+7в3595100 0.0 1017218
03:00+7в3495100 0.0 1019193
06:00+7в2495100 0.0 1020192
09:00+8в3389100 0.1 1022258
12:00+10в2383100 0.0 1023372
15:00+10вюв3481100 0.0 1023403
18:00+9вюв3689100 0.0 1024228
21:00+8вюв369274 0.0 1024187
1 октября, сб
сб100:00+7вюв3395100 0.0 102461
03:00+7вюв3495100 0.0 102492
06:00+9юв3692100 0.0 1024182
09:00+11ююв56765 0.0 1024457
12:00+14ююв566663 0.0 1023750
15:00+14ю566561 0.0 1022743
18:00+10ююв3884100 0.0 1021170
21:00+11ююв41080100 0.0 1020276
2 октября, вс
вс200:00+11ююв51184100 0.2 1018330
03:00+11ююв61389100 1.9 1017365
06:00+11ю6138971 0.0 1016388
09:00+13ю71385100 0.0 1015448
12:00+15ю71478100 0.0 1014618
15:00+16ю71378100 0.1 1012710
18:00+15ю61487100 2.0 1011568
21:00+14ю489880 11.8 1011239
3 октября, пн
пн300:00+13ююз3699100 2.9 1011187
03:00+12зсз239729 2.9 101256
06:00+13ю51181100 0.1 1014317
09:00+14ю51088100 0.6 1015374
12:00+16ю5977100 0.0 1016439
15:00+19ю5106620 0.0 1016757
18:00+16ю5136696 0.0 1018291
21:00+14ю51464100 0.0 1019345